This demonstration page uses our WeatherBlox Daily Observations layout. Learn more.

Left ArrowRight Arrow

Hourly Observations for September 17, 2022

Temp ( °F °C ) Dew Point ( °F °C ) Humidity (%) Winds ( mph kmh ) Pressure ( in mb ) Visibility ( mi km ) Precip ( " mm )
12:53 am 00:53 Mostly Clear 71 21.7 62 16.7 73 73 SSE 12 19 29.83 1010 10 16 0.00 0.00
1:53 am 01:53 Clear 66 18.9 62 16.7 87 87 NE 7 11 29.85 1011 10 16 0.00 0.00
2:53 am 02:53 Clear 67 19.4 62 16.7 84 84 NE 8 13 29.81 1010 10 16 0.00 0.00
3:53 am 03:53 Clear 66 18.9 63 17.2 90 90 E 12 19 29.82 1010 10 16 0.00 0.00
4:25 am 04:25 Clear with Nearby Thunderstorms 67 19.4 63 17.2 87 87 SE 10 17 29.83 1010 10 16 0.00 0.00
4:46 am 04:46 Partly Cloudy with Light Rain 67 19.4 63 17.2 87 87 SE 9 15 29.83 1010 10 16 0.01 0.13
4:53 am 04:53 Mostly Cloudy 67 19.4 63 17.2 87 87 S 10 17 29.84 1011 10 16 0.01 0.13
5:53 am 05:53 Clear 67 19.4 62 16.7 84 84 SSE 15 24 29.74 1007 10 16 0.01 0.25
6:53 am 06:53 Partly Cloudy 66 18.9 63 17.2 90 90 N 5 7 29.82 1010 10 16 0.00 0.00
7:53 am 07:53 Sunny 66 18.9 63 17.2 90 90 E 6 9 29.79 1009 10 16 0.01 0.13
8:53 am 08:53 Sunny 66 18.9 63 17.2 90 90 ENE 9 15 29.83 1010 10 16 0.00 0.00
9:53 am 09:53 Sunny 69 20.6 63 17.2 81 81 ENE 9 15 29.83 1010 10 16 0.00 0.00
10:53 am 10:53 Sunny 72 22.2 63 17.2 73 73 VRB 6 9 29.85 1011 10 16 0.00 0.00
11:53 am 11:53 Partly Cloudy 74 23.3 65 18.3 74 74 SE 9 15 29.83 1010 10 16 0.00 0.00
12:21 pm 12:21 Mostly Cloudy 76 24.4 66 18.9 71 71 SSE 9 15 29.79 1009 10 16 0.00 0.00
12:37 pm 12:37 Partly Cloudy 78 25.6 66 18.9 67 67 S 10 17 29.78 1008 10 16 0.00 0.00
12:53 pm 12:53 Mostly Sunny 79 26.1 66 18.9 65 65 S 8 13 29.82 1010 10 16 0.00 0.00
1:31 pm 13:31 Cloudy 78 25.6 66 18.9 67 67 S 9 15 29.77 1008 10 16 0.00 0.00
1:48 pm 13:48 Cloudy 79 26 64 18 61 61 undefined N/A 29.76 1008 10 16 0.00 0.00
1:53 pm 13:53 Mostly Cloudy 80 26.7 65 18.3 60 60 SSW 6 9 29.81 1010 10 16 0.00 0.00
2:53 pm 14:53 Cloudy 80 26.7 64 17.8 58 58 W 6 9 29.80 1009 10 16 0.00 0.00
3:53 pm 15:53 Partly Cloudy 82 27.8 65 18.3 56 56 NW 7 11 29.79 1009 10 16 0.00 0.00
4:53 pm 16:53 Sunny 83 28.3 65 18.3 55 55 ENE 3 6 29.78 1009 10 16 0.00 0.00
5:53 pm 17:53 Sunny 83 28.3 64 17.8 53 53 Calm 29.78 1009 10 16 0.00 0.00
6:53 pm 18:53 Sunny 81 27.2 66 18.9 61 61 NW 5 7 29.79 1009 10 16 0.00 0.00
7:53 pm 19:53 Clear 74 23.3 66 18.9 76 76 N 6 9 29.80 1009 10 16 0.00 0.00
8:53 pm 20:53 Clear 69 20.6 64 17.8 84 84 NNE 5 7 29.80 1009 10 16 0.00 0.00
9:53 pm 21:53 Clear 66 18.9 63 17.2 90 90 NNE 5 7 29.83 1010 10 16 0.00 0.00
10:53 pm 22:53 Clear 68 20 63 17.2 84 84 E 5 7 29.84 1011 10 16 0.00 0.00
11:53 pm 23:53 Clear 68 20 63 17.2 84 84 Calm 29.85 1011 10 16 0.00 0.00

Powered by AerisWeather